Freedom, CA

2:58 AM PST on January 22, 2017 (GMT -0800)
Watsonville Municipal

Weather History for KWVI - August, 2013

Change the Weather History Date:

Thursday, August 8, 2013

  Actual Average Record
Temperature  
Mean Temperature 63 °F 63 °F  
Max Temperature 69 °F 74 °F 94 °F (2002)
Min Temperature 56 °F 53 °F 50 °F (2002)
Degree Days  
Heating Degree Days 2    
Month to date heating degree days 30  
Since 1 June heating degree days 227  
Since 1 July heating degree days 125  
Cooling Degree Days 0    
Month to date cooling degree days 0  
Year to date cooling degree days 40  
Since 1 June cooling degree days 34  
Growing Degree Days 13 (Base 50)    
Moisture  
Dew Point 54 °F    
Average Humidity 76    
Maximum Humidity 93    
Minimum Humidity 59    
Precipitation  
Precipitation 0.01 in - 0.01 in (1963)
Month to date precipitation 0.04  
Year to date precipitation 2.45  
Since 1 July precipitation 0.06  
Sea Level Pressure  
Sea Level Pressure 30.02 in    
Wind  
Wind Speed 5 mph (SSW)    
Max Wind Speed 15 mph    
Max Gust Speed 20 mph    
Visibility 9 miles    
Events Rain    
T = Trace of Precipitation, MM = Missing Value Source: NWS Daily Summary

Daily Weather History Graph

Daily Weather History Graph

Search for Another Location

Airport or City:

Trip Planner

Search our weather history database for the weather conditions in past years. The results will help you decide how hot, cold, wet, or windy it might be!

Date:

Astronomy

Aug. 08, 2013 Rise Set
Actual Time 6:18 AM PDT 8:06 PM PDT
Civil Twilight 5:50 AM PDT 8:34 PM PDT
Nautical Twilight 5:16 AM PDT 9:08 PM PDT
Astronomical Twilight 4:40 AM PDT 9:44 PM PDT
Moon 8:06 AM PDT (8/8) 8:52 PM PDT (8/8)
Length of Visible Light 14h 43m
Length of Day
13h 47m
Waxing Crescent, 3% of the Moon is Illuminated
Aug 8
Waxing Crescent
Aug 14
First Quarter
Aug 20
Full
Aug 28
Last Quarter
Sep 5
New

Hourly Weather History & Observations

Time (PDT) Temp. Dew Point Humidity Pressure Visibility Wind Dir Wind Speed Gust Speed Precip Events Conditions
12:53 AM 57.9 °F 55.0 °F 90% 30.06 in 6.0 mi East 3.5 mph - N/A   Overcast
1:53 AM 57.9 °F 55.0 °F 90% 30.05 in 8.0 mi Calm Calm - N/A   Overcast
2:53 AM 57.0 °F 55.0 °F 93% 30.04 in 10.0 mi Calm Calm - N/A   Overcast
3:04 AM 57.2 °F 55.4 °F 94% 30.04 in 10.0 mi Calm Calm - N/A   Overcast
3:53 AM 57.0 °F 55.0 °F 93% 30.03 in 4.0 mi Calm Calm - N/A   Overcast
4:53 AM 57.0 °F 55.0 °F 93% 30.02 in 10.0 mi ENE 3.5 mph - N/A   Overcast
5:04 AM 57.2 °F 55.4 °F 94% 30.02 in 10.0 mi ENE 5.8 mph - N/A   Overcast
5:53 AM 57.0 °F 54.0 °F 89% 30.02 in 7.0 mi Calm Calm - N/A   Overcast
6:53 AM 57.0 °F 54.0 °F 89% 30.03 in 7.0 mi Calm Calm - N/A   Overcast
7:53 AM 57.0 °F 54.0 °F 89% 30.04 in 4.0 mi Calm Calm - N/A   Overcast
8:53 AM 57.9 °F 55.0 °F 90% 30.04 in 4.0 mi Calm Calm - 0.01 in   Overcast
8:59 AM 57.2 °F 55.4 °F 94% 30.04 in 2.5 mi Calm Calm - N/A   Overcast
9:10 AM 57.2 °F 55.4 °F 94% 30.04 in 4.0 mi Calm Calm - 0.00 in Rain Light Rain
9:53 AM 59.0 °F 55.0 °F 87% 30.04 in 9.0 mi SSW 3.5 mph - 0.00 in   Overcast
10:34 AM 60.8 °F 53.6 °F 77% 30.04 in 10.0 mi SW 5.8 mph - N/A   Overcast
10:53 AM 62.1 °F 54.0 °F 75% 30.04 in 10.0 mi Variable 4.6 mph - N/A   Overcast
11:51 AM 64.4 °F 53.6 °F 68% 30.04 in 10.0 mi SW 5.8 mph - N/A   Overcast
11:53 AM 64.9 °F 54.0 °F 68% 30.04 in 10.0 mi WSW 8.1 mph - N/A   Mostly Cloudy
12:53 PM 66.0 °F 54.0 °F 65% 30.03 in 10.0 mi SSW 8.1 mph - N/A   Mostly Cloudy
1:21 PM 69.8 °F 53.6 °F 56% 30.03 in 10.0 mi SSW 11.5 mph - N/A   Scattered Clouds
1:53 PM 68.0 °F 54.0 °F 61% 30.02 in 10.0 mi SW 11.5 mph - N/A   Partly Cloudy
2:53 PM 66.0 °F 53.1 °F 63% 30.01 in 10.0 mi WSW 10.4 mph - N/A   Clear
3:53 PM 66.0 °F 53.1 °F 63% 30.01 in 10.0 mi SW 9.2 mph - N/A   Clear
4:53 PM 64.9 °F 53.1 °F 65% 30.00 in 10.0 mi SSW 10.4 mph - N/A   Clear
5:53 PM 62.1 °F 53.1 °F 72% 29.99 in 10.0 mi SW 12.7 mph - N/A   Scattered Clouds
6:06 PM 62.6 °F 53.6 °F 72% 29.99 in 10.0 mi SSW 11.5 mph - N/A   Mostly Cloudy
6:53 PM 61.0 °F 52.0 °F 72% 29.99 in 10.0 mi SW 9.2 mph - N/A   Mostly Cloudy
7:01 PM 60.8 °F 51.8 °F 72% 29.98 in 10.0 mi SW 8.1 mph - N/A   Mostly Cloudy
7:53 PM 59.0 °F 52.0 °F 78% 29.99 in 10.0 mi SSW 6.9 mph - N/A   Overcast
8:44 PM 57.2 °F 51.8 °F 82% 30.00 in 10.0 mi SSW 6.9 mph - N/A   Overcast
8:53 PM 57.9 °F 52.0 °F 81% 30.00 in 10.0 mi South 6.9 mph - N/A   Overcast
9:53 PM 57.9 °F 52.0 °F 81% 30.01 in 10.0 mi SSE 8.1 mph - N/A   Overcast
10:53 PM 57.0 °F 52.0 °F 83% 30.01 in 10.0 mi ESE 6.9 mph - N/A   Overcast
11:00 PM 57.2 °F 51.8 °F 82% 30.00 in 10.0 mi ESE 5.8 mph - N/A   Overcast
11:53 PM 57.0 °F 52.0 °F 83% 30.00 in 10.0 mi SSE 3.5 mph - N/A   Overcast